When you browse on this site, cookies collect data to enhance your experience and personalize the content and advertising you see.
Visit our Privacy Policy to learn more. By continuing to use the site, you agree to this use of cookies and data.
  • In Czech Republic
  • List of Countries
  • For 7 days
  • Water Temperature
  • Satellite Maps
  • Weather Map
  • Weather Widgets
  • user-avatar
    Login

    Hourly Weather Ipswich

    Today, 19 November, Monday

    Time Temperature Precipitation Wind Pressure Humidity
    00:00 +5°C° 0 mm 8 mps 768 mmHg 77%
    01:00 +5°C° 0 mm 9 mps 768 mmHg 76%
    02:00 +5°C° 0 mm 9 mps 768 mmHg 75%
    03:00 +5°C° 0 mm 9 mps 767 mmHg 74%
    04:00 +5°C° 0 mm 9 mps 767 mmHg 72%
    05:00 +5°C° 0 mm 9 mps 767 mmHg 71%
    06:00 +6°C° 0 mm 9 mps 767 mmHg 69%
    07:00 +6°C° 0 mm 9 mps 766 mmHg 68%
    08:00 +6°C° 0 mm 9 mps 766 mmHg 68%
    09:00 +6°C° 0 mm 9 mps 766 mmHg 67%
    10:00 +6°C° 0.1 mm 9 mps 766 mmHg 66%
    11:00 +6°C° 0.1 mm 9 mps 765 mmHg 65%
    12:00 +7°C° 0.1 mm 9 mps 765 mmHg 64%
    13:00 +7°C° 0.1 mm 9 mps 764 mmHg 63%
    14:00 +7°C° 0.1 mm 9 mps 764 mmHg 63%
    15:00 +6°C° 0.1 mm 10 mps 763 mmHg 62%
    16:00 +6°C° 0.2 mm 10 mps 763 mmHg 63%
    17:00 +6°C° 0.2 mm 10 mps 763 mmHg 63%
    18:00 +6°C° 0.2 mm 10 mps 762 mmHg 64%
    19:00 +5°C° 0.1 mm 10 mps 762 mmHg 64%
    20:00 +5°C° 0.1 mm 10 mps 762 mmHg 65%
    21:00 +3°C° 0.1 mm 10 mps 762 mmHg 66%
    22:00 +3°C° 0.2 mm 10 mps 761 mmHg 65%
    23:00 +3°C° 0.2 mm 10 mps 761 mmHg 65%

    Tomorrow, 20 November, Tuesday

    Time Temperature Precipitation Wind Pressure Humidity
    00:00 +3°C° 0.2 mm 10 mps 761 mmHg 64%
    01:00 +3°C° 0.2 mm 10 mps 761 mmHg 65%
    02:00 +3°C° 0.2 mm 10 mps 760 mmHg 67%
    03:00 +3°C° 0.2 mm 10 mps 760 mmHg 68%
    04:00 +3°C° 0.1 mm 10 mps 759 mmHg 69%
    05:00 +3°C° 0.1 mm 10 mps 759 mmHg 71%
    06:00 +2°C° 0.1 mm 10 mps 759 mmHg 72%
    07:00 +2°C° 0.4 mm 10 mps 758 mmHg 72%
    08:00 +2°C° 0.4 mm 10 mps 758 mmHg 73%
    09:00 +2°C° 0.4 mm 10 mps 758 mmHg 73%
    10:00 +3°C° 0.5 mm 10 mps 757 mmHg 72%
    11:00 +3°C° 0.5 mm 10 mps 757 mmHg 72%
    12:00 +3°C° 0.5 mm 9 mps 756 mmHg 72%
    13:00 +3°C° 0.3 mm 9 mps 756 mmHg 72%
    14:00 +3°C° 0.3 mm 9 mps 756 mmHg 72%
    15:00 +3°C° 0.3 mm 9 mps 755 mmHg 72%
    16:00 +4°C° 0.2 mm 8 mps 755 mmHg 72%
    17:00 +2°C° 0.2 mm 8 mps 755 mmHg 73%
    18:00 +3°C° 0.2 mm 7 mps 755 mmHg 74%
    19:00 +3°C° 0.2 mm 7 mps 755 mmHg 75%
    20:00 +3°C° 0.2 mm 6 mps 755 mmHg 76%
    21:00 +3°C° 0.2 mm 6 mps 755 mmHg 77%
    22:00 +3°C° 0.4 mm 6 mps 754 mmHg 78%
    23:00 +3°C° 0.4 mm 6 mps 754 mmHg 79%

    Day after tomorrow, 21 November, Wednesday

    Time Temperature Precipitation Wind Pressure Humidity
    00:00 +3°C° 0.4 mm 6 mps 754 mmHg 80%
    01:00 +3°C° 0.7 mm 6 mps 754 mmHg 81%
    02:00 +3°C° 0.7 mm 6 mps 754 mmHg 83%
    03:00 +3°C° 0.7 mm 6 mps 754 mmHg 84%
    04:00 +3°C° 0.3 mm 6 mps 754 mmHg 84%
    05:00 +3°C° 0.3 mm 6 mps 755 mmHg 84%
    06:00 +3°C° 0.3 mm 6 mps 755 mmHg 83%
    07:00 +3°C° 0.1 mm 6 mps 756 mmHg 81%
    08:00 +3°C° 0.1 mm 6 mps 756 mmHg 79%
    09:00 +3°C° 0.1 mm 6 mps 757 mmHg 77%
    10:00 +4°C° 0 mm 6 mps 758 mmHg 74%
    11:00 +6°C° 0 mm 5 mps 759 mmHg 71%
    12:00 +6°C° 0 mm 5 mps 759 mmHg 67%
    13:00 +6°C° 0 mm 4 mps 760 mmHg 69%
    14:00 +6°C° 0 mm 4 mps 760 mmHg 70%
    15:00 +5°C° 0 mm 3 mps 761 mmHg 71%
    16:00 +5°C° 0 mm 3 mps 761 mmHg 73%
    17:00 +4°C° 0 mm 3 mps 762 mmHg 75%
    18:00 +4°C° 0 mm 3 mps 763 mmHg 77%
    19:00 +4°C° 0 mm 2 mps 763 mmHg 77%
    20:00 +4°C° 0 mm 2 mps 763 mmHg 78%
    21:00 +4°C° 0 mm 2 mps 764 mmHg 78%
    22:00 +5°C° 0 mm 1 mps 764 mmHg 78%
    23:00 +5°C° 0 mm 1 mps 764 mmHg 79%

    22 November, Thursday

    Time Temperature Precipitation Wind Pressure Humidity
    00:00 +5°C° 0 mm 1 mps 764 mmHg 80%
    01:00 +4°C° 0 mm 2 mps 764 mmHg 81%
    02:00 +4°C° 0 mm 2 mps 764 mmHg 83%
    03:00 +4°C° 0 mm 2 mps 764 mmHg 84%
    04:00 +4°C° 0 mm 2 mps 764 mmHg 86%
    05:00 +4°C° 0 mm 2 mps 764 mmHg 88%
    06:00 +4°C° 0 mm 2 mps 764 mmHg 89%
    07:00 +5°C° 0 mm 2 mps 764 mmHg 89%
    08:00 +5°C° 0 mm 2 mps 764 mmHg 89%
    09:00 +5°C° 0 mm 2 mps 764 mmHg 89%
    10:00 +6°C° 0 mm 2 mps 764 mmHg 87%
    11:00 +7°C° 0 mm 2 mps 764 mmHg 85%
    12:00 +7°C° 0 mm 2 mps 764 mmHg 84%
    13:00 +7°C° 0 mm 2 mps 764 mmHg 84%
    14:00 +7°C° 0 mm 2 mps 764 mmHg 85%
    15:00 +7°C° 0 mm 2 mps 763 mmHg 86%
    16:00 +7°C° 0.1 mm 2 mps 764 mmHg 87%
    17:00 +6°C° 0.1 mm 2 mps 764 mmHg 89%
    18:00 +6°C° 0.1 mm 2 mps 764 mmHg 90%
    19:00 +6°C° 0 mm 2 mps 764 mmHg 90%
    20:00 +5°C° 0 mm 2 mps 764 mmHg 91%
    21:00 +5°C° 0 mm 2 mps 764 mmHg 91%
    22:00 +5°C° 0 mm 2 mps 764 mmHg 91%
    23:00 +4°C° 0 mm 3 mps 764 mmHg 91%

    23 November, Friday

    Time Temperature Precipitation Wind Pressure Humidity
    00:00 +3°C° 0 mm 3 mps 765 mmHg 91%
    01:00 +3°C° 0 mm 3 mps 765 mmHg 90%
    02:00 +3°C° 0 mm 3 mps 764 mmHg 90%
    03:00 +3°C° 0 mm 3 mps 764 mmHg 89%
    04:00 +3°C° 0 mm 3 mps 764 mmHg 89%
    05:00 +3°C° 0 mm 3 mps 764 mmHg 89%
    06:00 +3°C° 0 mm 3 mps 764 mmHg 89%
    07:00 +4°C° 0 mm 4 mps 764 mmHg 89%
    08:00 +4°C° 0 mm 4 mps 765 mmHg 89%
    09:00 +5°C° 0 mm 4 mps 765 mmHg 89%
    10:00 +6°C° 0 mm 4 mps 765 mmHg 85%
    11:00 +7°C° 0 mm 4 mps 765 mmHg 82%
    12:00 +8°C° 0 mm 4 mps 764 mmHg 79%
    13:00 +9°C° 0 mm 3 mps 764 mmHg 81%
    14:00 +9°C° 0 mm 3 mps 764 mmHg 83%
    15:00 +9°C° 0 mm 3 mps 764 mmHg 84%
    16:00 +8°C° 0 mm 3 mps 764 mmHg 86%
    17:00 +7°C° 0 mm 3 mps 763 mmHg 88%
    18:00 +6°C° 0 mm 4 mps 763 mmHg 90%
    19:00 +6°C° 0 mm 4 mps 763 mmHg 90%
    20:00 +6°C° 0 mm 4 mps 763 mmHg 89%
    21:00 +6°C° 0 mm 4 mps 762 mmHg 89%
    22:00 +6°C° 0 mm 4 mps 762 mmHg 90%
    23:00 +6°C° 0 mm 4 mps 762 mmHg 91%

    24 November, Saturday

    Time Temperature Precipitation Wind Pressure Humidity
    00:00 +6°C° 0 mm 4 mps 762 mmHg 91%
    01:00 +6°C° 0 mm 4 mps 761 mmHg 91%
    02:00 +6°C° 0 mm 4 mps 760 mmHg 91%
    03:00 +6°C° 0 mm 4 mps 760 mmHg 91%
    04:00 +7°C° 0.3 mm 5 mps 759 mmHg 91%
    05:00 +7°C° 0.3 mm 5 mps 758 mmHg 92%
    06:00 +7°C° 0.3 mm 6 mps 758 mmHg 92%
    07:00 +7°C° 1.1 mm 6 mps 757 mmHg 92%
    08:00 +6°C° 1.1 mm 7 mps 757 mmHg 92%
    09:00 +6°C° 1.1 mm 7 mps 756 mmHg 92%
    10:00 +5°C° 2.4 mm 7 mps 756 mmHg 92%
    11:00 +5°C° 2.4 mm 7 mps 755 mmHg 92%
    12:00 +5°C° 2.4 mm 7 mps 755 mmHg 91%
    13:00 +5°C° 1.8 mm 8 mps 754 mmHg 91%
    14:00 +5°C° 1.8 mm 8 mps 754 mmHg 90%
    15:00 +5°C° 1.8 mm 8 mps 754 mmHg 89%
    16:00 +5°C° 0.8 mm 9 mps 754 mmHg 89%
    17:00 +5°C° 0.8 mm 9 mps 754 mmHg 88%
    18:00 +5°C° 0.8 mm 9 mps 754 mmHg 88%
    19:00 +5°C° 0.5 mm 10 mps 755 mmHg 87%
    20:00 +6°C° 0.5 mm 10 mps 755 mmHg 87%
    21:00 +6°C° 0.5 mm 10 mps 756 mmHg 86%
    22:00 +6°C° 0.2 mm 10 mps 756 mmHg 87%
    23:00 +6°C° 0.2 mm 9 mps 757 mmHg 87%
    Show more